Home   Weather   India   Kolkata   Past weeks
Flag for India

Past Weather in Kolkata, West Bengal, India — Yesterday and Last 2 Weeks

Currently: 84 °F. Passing clouds. (Weather station: Calcutta / Dum Dum, India). See more current weather

Past Weather in Kolkata — Graph

°F

Kolkata Temperature Yesterday

Maximum temperature yesterday: 95 °F (at 2:00 pm)
Minimum temperature yesterday: 77 °F (at 2:30 am)
Average temperature yesterday: 85 °F

High & Low Weather Summary for the Past Weeks

 TemperatureHumidityPressure
High102 °F (Apr 25, 1:00 pm)100% (May 4, 6:30 am)29.89 "Hg (May 4, 6:30 am)
Low70 °F (May 4, 7:00 am)24% (Apr 24, 3:00 pm)29.59 "Hg (Apr 26, 5:00 pm)
Average86 °F67%29.75 "Hg
* Reported Apr 23 9:30 pm — May 8 9:30 pm, Kolkata. Weather by CustomWeather, © 2021

Note: Actual official high and low records may vary slightly from our data, if they occured in-between our weather recording intervals... More about our weather records

Kolkata Weather History for the Previous 24 Hours

Scroll right to see more
 ConditionsComfort  
Time TempWeatherWind HumidityBarometerVisibility
9:30 pm
Sat, May 8
86 °FPassing clouds.9 mph75%29.77 "Hg2 mi
9:00 pm86 °FPassing clouds.9 mph75%29.77 "Hg2 mi
8:30 pm86 °FHaze.12 mph75%29.74 "Hg2 mi
8:00 pm86 °FHaze.9 mph75%29.74 "Hg2 mi
7:30 pm88 °FHaze.No wind62%29.71 "Hg2 mi
7:00 pm88 °FHaze.No wind62%29.71 "Hg2 mi
6:30 pm90 °FHaze.No wind55%29.68 "Hg2 mi
6:00 pm90 °FHaze.No wind55%29.68 "Hg2 mi
5:30 pm91 °FHaze.3 mph52%29.68 "Hg2 mi
5:00 pm91 °FHaze.3 mph52%29.71 "Hg2 mi
4:30 pm91 °FHaze.7 mph52%29.71 "Hg3 mi
4:00 pm91 °FScattered clouds.6 mph56%29.71 "Hg3 mi
3:30 pm93 °FScattered clouds.6 mph53%29.71 "Hg3 mi
3:00 pm93 °FScattered clouds.No wind53%29.74 "Hg3 mi
2:30 pm93 °FScattered clouds.5 mph53%29.74 "Hg3 mi
2:00 pm91 °FScattered clouds.6 mph59%29.74 "Hg3 mi
1:30 pm91 °FScattered clouds.3 mph59%29.74 "Hg3 mi
1:00 pm91 °FScattered clouds.3 mph56%29.80 "Hg3 mi
12:30 pm91 °FScattered clouds.6 mph59%29.80 "Hg3 mi
12:00 pm90 °FScattered clouds.5 mph63%29.83 "Hg2 mi
11:30 am90 °FScattered clouds.5 mph63%29.86 "Hg2 mi
11:00 am88 °FScattered clouds.5 mph66%29.86 "Hg2 mi
10:30 am88 °FScattered clouds.6 mph66%29.89 "Hg2 mi
10:00 am88 °FScattered clouds.3 mph66%29.89 "Hg2 mi
9:30 am88 °FScattered clouds.7 mph62%29.89 "Hg2 mi
9:00 am88 °FScattered clouds.3 mph66%29.89 "Hg2 mi
8:30 am86 °FHaze.3 mph70%29.89 "Hg2 mi
8:00 am84 °FHaze.5 mph74%29.89 "Hg2 mi
7:30 am82 °FHaze.7 mph84%29.89 "Hg2 mi
7:00 am82 °FHaze.6 mph84%29.86 "Hg2 mi
6:30 am81 °FHaze.3 mph89%29.80 "Hg2 mi
6:00 am81 °FHaze.No wind84%29.80 "Hg2 mi
5:30 am81 °FScattered clouds.No wind84%29.77 "Hg2 mi
5:00 am81 °FPassing clouds.5 mph84%29.74 "Hg2 mi
4:30 am79 °FHaze.3 mph89%29.74 "Hg2 mi
4:00 am79 °FHaze.3 mph89%29.74 "Hg2 mi
3:30 am79 °FHaze.5 mph84%29.77 "Hg2 mi
3:00 am79 °FHaze.5 mph84%29.77 "Hg2 mi
2:30 am79 °FHaze.3 mph84%29.77 "Hg2 mi
2:00 am79 °FHaze.3 mph84%29.77 "Hg2 mi
1:30 am79 °FHaze.No wind79%29.80 "Hg2 mi
1:00 am79 °FHaze.No wind79%29.83 "Hg2 mi
12:30 am79 °FPassing clouds.No wind79%29.83 "Hg2 mi
12:00 am79 °FPassing clouds.No wind84%29.86 "Hg2 mi
11:30 pm
Fri, May 7
79 °FPassing clouds.No wind84%29.86 "Hg2 mi
11:00 pm79 °FPassing clouds.14 mph84%29.86 "Hg2 mi
Weather by CustomWeather, © 2021

See weather overview